| time (UTC) | temp C | wind direction | speed KPH | gust KPH | rain 1hr cm | rain 24hr cm | rain mn cm | humidity % | barometer mb |
| 20260507020010 | 6 | 196 | 1.6 | 11.3 | 0.15 | 1.42 | 1.42 | 96 | 1010.4 |
| 20260507014504 | 6 | 17 | 3.2 | 8.0 | 0.20 | 1.40 | 1.40 | 96 | 1010.3 |
| 20260507013004 | 6 | 163 | 1.6 | 16.1 | 0.25 | 1.32 | 1.32 | 95 | 1010.2 |
| 20260507011506 | 6 | 238 | 3.2 | 12.9 | 0.20 | 1.30 | 1.30 | 95 | 1010.2 |
| 20260507010003 | 7 | 289 | 1.6 | 14.5 | 0.18 | 1.27 | 1.27 | 95 | 1009.9 |
| 20260507004506 | 7 | 352 | 1.6 | 9.7 | 0.10 | 1.19 | 1.19 | 95 | 1009.6 |
| 20260507003007 | 7 | 17 | 1.6 | 14.5 | 0.03 | 1.09 | 1.09 | 95 | 1009.6 |
| 20260507001507 | 8 | 50 | 3.2 | 11.3 | 0.03 | 1.09 | 1.09 | 95 | 1009.2 |
| 20260507000004 | 8 | 238 | 3.2 | 9.7 | 0.10 | 1.09 | 1.09 | 95 | 1008.9 |
| 20260506234504 | 8 | 314 | 0.0 | 6.4 | 0.13 | 1.09 | 1.09 | 95 | 1008.5 |
| 20260506233004 | 8 | 210 | 0.0 | 4.8 | 0.10 | 1.07 | 1.07 | 95 | 1008.4 |
| 20260506231508 | 9 | 266 | 4.8 | 11.3 | 0.10 | 1.07 | 1.07 | 95 | 1008.2 |
| 20260506230007 | 10 | 287 | 4.8 | 12.9 | 0.03 | 0.99 | 0.99 | 95 | 1008.0 |
| 20260506224509 | 10 | 280 | 3.2 | 8.0 | 0.00 | 0.97 | 0.97 | 94 | 1007.9 |
| 20260506223010 | 11 | 306 | 0.0 | 4.8 | 0.00 | 0.97 | 0.97 | 95 | 1008.0 |
| 20260506221508 | 11 | 296 | 1.6 | 6.4 | 0.05 | 0.97 | 0.97 | 93 | 1007.6 |
| 20260506220017 | 13 | 324 | 1.6 | 12.9 | 0.33 | 0.97 | 0.97 | 93 | 1007.4 |
| 20260506214509 | 13 | 217 | 0.0 | 3.2 | 0.36 | 0.97 | 0.97 | 94 | 1007.2 |
| 20260506213008 | 13 | 206 | 1.6 | 16.1 | 0.36 | 0.97 | 0.97 | 94 | 1007.0 |
| 20260506211514 | 13 | 215 | 3.2 | 17.7 | 0.33 | 1.02 | 0.91 | 94 | 1007.1 |
| 20260506210012 | 13 | 213 | 3.2 | 9.7 | 0.05 | 0.81 | 0.64 | 93 | 1007.2 |
| 20260506204508 | 14 | 55 | 1.6 | 9.7 | 0.03 | 1.02 | 0.61 | 92 | 1007.2 |
| 20260506203008 | 14 | 149 | 1.6 | 14.5 | 0.05 | 1.02 | 0.61 | 92 | 1007.3 |
| 20260506201509 | 14 | 220 | 3.2 | 8.0 | 0.05 | 0.99 | 0.58 | 92 | 1007.3 |
| 20260506200015 | 14 | 194 | 1.6 | 8.0 | 0.08 | 0.99 | 0.58 | 92 | 1007.4 |
| 20260506194511 | 14 | 194 | 1.6 | 12.9 | 0.13 | 0.99 | 0.58 | 92 | 1007.6 |
| 20260506193012 | 14 | 257 | 1.6 | 16.1 | 0.13 | 0.97 | 0.56 | 92 | 1007.7 |
| 20260506191511 | 13 | 290 | 3.2 | 19.3 | 0.15 | 0.94 | 0.53 | 91 | 1007.9 |
| 20260506190006 | 13 | 178 | 4.8 | 17.7 | 0.18 | 0.91 | 0.51 | 92 | 1008.2 |
| 20260506184509 | 13 | 149 | 1.6 | 8.0 | 0.20 | 0.86 | 0.46 | 92 | 1008.5 |
| 20260506183015 | 13 | 165 | 3.2 | 12.9 | 0.23 | 0.84 | 0.43 | 90 | 1008.6 |
| 20260506181517 | 13 | 275 | 4.8 | 20.9 | 0.23 | 0.79 | 0.38 | 90 | 1008.7 |
| 20260506180018 | 13 | 212 | 8.0 | 25.7 | 0.23 | 0.74 | 0.33 | 89 | 1008.7 |
| 20260506174507 | 13 | 152 | 3.2 | 24.1 | 0.18 | 0.66 | 0.25 | 91 | 1009.0 |
| 20260506173015 | 13 | 105 | 3.2 | 20.9 | 0.15 | 0.61 | 0.20 | 92 | 1009.2 |
| 20260506171518 | 13 | 199 | 4.8 | 11.3 | 0.10 | 0.56 | 0.15 | 92 | 1009.3 |
| 20260506170015 | 13 | 78 | 1.6 | 8.0 | 0.05 | 0.51 | 0.10 | 92 | 1009.3 |
| 20260506164516 | 13 | 325 | 3.2 | 9.7 | 0.05 | 0.48 | 0.08 | 91 | 1009.5 |
| 20260506163008 | 13 | 261 | 1.6 | 11.3 | 0.03 | 0.46 | 0.05 | 89 | 1009.8 |
| 20260506161515 | 14 | 187 | 3.2 | 6.4 | 0.05 | 0.46 | 0.05 | 89 | 1009.8 |
| 20260506160019 | 14 | 69 | 3.2 | 6.4 | 0.05 | 0.46 | 0.05 | 88 | 1010.0 |
| 20260506154519 | 14 | 145 | 1.6 | 8.0 | 0.03 | 0.43 | 0.03 | 88 | 1010.4 |
| 20260506153010 | 14 | 161 | 1.6 | 8.0 | 0.03 | 0.43 | 0.03 | 86 | 1010.9 |
| 20260506151511 | 14 | 172 | 0.0 | 9.7 | 0.00 | 0.41 | 0.00 | 84 | 1011.1 |
| 20260506150018 | 14 | 213 | 1.6 | 11.3 | 0.00 | 0.41 | 0.00 | 82 | 1011.0 |
| 20260506144518 | 14 | 163 | 1.6 | 8.0 | 0.00 | 0.41 | 0.00 | 81 | 1010.7 |
| 20260506143026 | 14 | 198 | 1.6 | 9.7 | 0.00 | 0.41 | 0.00 | 81 | 1010.8 |
| 20260506141511 | 14 | 202 | 1.6 | 11.3 | 0.00 | 0.41 | 0.00 | 81 | 1010.9 |
| 20260506140020 | 13 | 274 | 1.6 | 4.8 | 0.00 | 0.41 | 0.00 | 83 | 1010.9 |
| 20260506134520 | 13 | 219 | 1.6 | 11.3 | 0.00 | 0.41 | 0.00 | 83 | 1010.8 |
| 20260506133020 | 13 | 133 | 4.8 | 14.5 | 0.00 | 0.41 | 0.00 | 84 | 1010.7 |
| 20260506131522 | 13 | 120 | 6.4 | 14.5 | 0.00 | 0.41 | 0.00 | 85 | 1011.2 |
| 20260506130016 | 13 | 232 | 0.0 | 3.2 | 0.00 | 0.41 | 0.00 | 86 | 1011.6 |
| 20260506124521 | 12 | 124 | 1.6 | 3.2 | 0.00 | 0.41 | 0.00 | 86 | 1011.0 |
| 20260506123031 | 12 | 256 | 0.0 | 4.8 | 0.00 | 0.41 | 0.00 | 87 | 1011.2 |
| 20260506121506 | 12 | 93 | 0.0 | 3.2 | 0.00 | 0.41 | 0.00 | 86 | 1011.1 |
| 20260506120012 | 12 | 249 | 0.0 | 4.8 | 0.00 | 0.41 | 0.00 | 86 | 1011.2 |
| 20260506114516 | 12 | 119 | 0.0 | 4.8 | 0.00 | 0.41 | 0.00 | 86 | 1011.2 |
| 20260506113022 | 12 | 227 | 1.6 | 3.2 | 0.00 | 0.41 | 0.00 | 86 | 1011.4 |
| 20260506111521 | 12 | 257 | 0.0 | 8.0 | 0.00 | 0.41 | 0.00 | 85 | 1011.2 |
| 20260506110008 | 12 | 202 | 1.6 | 8.0 | 0.00 | 0.41 | 0.00 | 85 | 1011.5 |
| 20260506104513 | 12 | 184 | 0.0 | 6.4 | 0.00 | 0.41 | 0.00 | 87 | 1011.2 |
| 20260506103026 | 11 | 209 | 1.6 | 4.8 | 0.00 | 0.41 | 0.00 | 90 | 1011.3 |
| 20260506101524 | 11 | 266 | 0.0 | 3.2 | 0.00 | 0.41 | 0.00 | 90 | 1011.5 |
| 20260506100008 | 11 | 235 | 0.0 | 3.2 | 0.00 | 0.41 | 0.00 | 89 | 1011.4 |
| 20260506094526 | 11 | 234 | 0.0 | 1.6 | 0.00 | 0.41 | 0.00 | 90 | 1011.4 |
| 20260506093026 | 11 | 234 | 0.0 | 1.6 | 0.00 | 0.41 | 0.00 | 89 | 1011.4 |
| 20260506091524 | 11 | 202 | 1.6 | 3.2 | 0.00 | 0.41 | 0.00 | 88 | 1011.3 |
| 20260506090026 | 11 | 214 | 1.6 | 3.2 | 0.00 | 0.41 | 0.00 | 88 | 1011.7 |
| 20260506084510 | 11 | 227 | 1.6 | 3.2 | 0.00 | 0.41 | 0.00 | 87 | 1011.7 |
| 20260506083018 | 11 | 227 | 1.6 | 4.8 | 0.00 | 0.41 | 0.00 | 86 | 1011.9 |
| 20260506081520 | 12 | 213 | 3.2 | 3.2 | 0.00 | 0.41 | 0.00 | 85 | 1012.0 |
| 20260506073016 | 12 | 205 | 3.2 | 4.8 | 0.00 | 0.41 | 0.00 | 84 | 1012.0 |
| 20260506071520 | 13 | 213 | 0.0 | 3.2 | 0.00 | 0.41 | 0.00 | 84 | 1012.1 |
| 20260506061521 | 14 | 213 | 3.2 | 11.3 | 0.00 | 0.41 | 0.00 | 79 | 1011.8 |
| 20260506044525 | 15 | 169 | 0.0 | 4.8 | 0.00 | 0.41 | 0.00 | 76 | 1011.7 |
| 20260506043028 | 16 | 189 | 3.2 | 14.5 | 0.00 | 0.41 | 0.00 | 74 | 1011.5 |
| 20260506041528 | 16 | 281 | 1.6 | 8.0 | 0.00 | 0.41 | 0.00 | 73 | 1011.7 |
| 20260506040017 | 16 | 265 | 6.4 | 19.3 | 0.00 | 0.41 | 0.00 | 71 | 1011.8 |
| 20260506034522 | 16 | 178 | 3.2 | 14.5 | 0.00 | 0.41 | 0.41 | 70 | 1011.6 |
| 20260506033025 | 16 | 190 | 3.2 | 11.3 | 0.00 | 0.41 | 0.41 | 71 | 1011.5 |
| 20260506031526 | 16 | 149 | 3.2 | 8.0 | 0.00 | 0.41 | 0.41 | 71 | 1011.6 |
| 20260506030018 | 16 | 169 | 3.2 | 9.7 | 0.00 | 0.41 | 0.41 | 72 | 1011.7 |
| 20260506024526 | 15 | 172 | 1.6 | 11.3 | 0.00 | 0.41 | 0.41 | 74 | 1011.6 |
| 20260506023004 | 15 | 133 | 0.0 | 8.0 | 0.00 | 0.41 | 0.41 | 77 | 1011.5 |
| 20260506021509 | 15 | 59 | 3.2 | 11.3 | 0.00 | 0.41 | 0.41 | 78 | 1011.5 |